RS34S (SXC3-218 KUZBAS*) (53375 NORAD) Tracking and Keplerian Element Data

This shows tracking and keplerian element data for the satellite.

Feedback or suggestion? Click here.




ElementValue
Catalog53375
NameRS34S (SXC3-218 KUZBAS*)
Epoch Orbit1585
Epoch Day325.2940976
Epoch Year2022
RAAN226.0644
Inclination97.4271
Eccentricity0.0002706
Argument of Perigee110.5167
Mean Anonmoly349.227
Mean Motion15.26672709
Decay Rate9.348E-05
L11 53375U 22096F 22325.29409760 .00009348 00000+0 35892-3 0 9996
L22 53375 97.4271 226.0644 0002706 110.5167 349.2270 15.26672709 15856



Live tracking and technical data element details for RS34S (SXC3-218 KUZBAS*) (NORAD 53375). RS34S (SXC3-218 KUZBAS*) can be tracked NOW for your location showing map with azimuth and elevation plus other details from your city location.







IsCatalogInMostPopularTable: catalog: 53375, numindb: 3
Update: records affected: 1



GetName: 53375 RS34S (SXC3-218 KUZBAS*)

Hit Count: updated at: Tue, 29 Nov 2022 01:12:02 GMT